sat.trackr.live / text

‹ back to catalog

STARLINK-1400

NORAD 45700 · 2020-035AV

PAYLOAD ACTIVE UNKNOWN

§ Identity

Operator
Country
US
Launch date
2020-06-04
Launch site
AFETR
Launch vehicle
Mass (kg)
RCS (m²)

Purposes: comms

External: N2YO · Heavens-Above · Gunter

§ Orbital elements

Epoch: 2026-09-20T04:37:56.896896Z

Period
90.75 min
Inclination
53.0363°
Eccentricity
0.0004290
Mean motion
15.86782359 rev/d
Perigee alt
308.4 km
Apogee alt
314.2 km
Semi-major
6,689.4 km
B*
4.2975e-4
RAAN
143.6687°
Arg perigee
108.1599°
Mean anomaly
251.9892°
Rev number
34,986

§ Raw data

STARLINK-14001 45700U 20035AV  26263.19301964  .00113088  00000+0  42975-3 0  99982 45700  53.0363 143.6687 0004290 108.1599 251.9892 15.86782359349861

JSON: /api/v1/satellites/45700 · /tle

For live sub-satellite position, see the globe view (requires WebGL).

§ Visibility from observer

Set your observer location to see the next 7 days of passes ≥ 10°. The values pass through the URL so the page stays shareable.

No JS? Fill the form by hand. The geolocation button needs JavaScript.